FW0824 Weather Reports


Display with metric or nautical units.
time (UTC)temp
F
wind
direction
speed
MPH
gust
MPH
rain 1hr
in
rain 24hr
in
rain mn
in
humidity
%
barometer
mb
20260504080533 55 230 5.0 10.0 0.00 0.00 0.00 47 999.4
20260504050501 56 225 2.0 4.0 0.00 0.00 0.00 48 1002.8
20260504050002 56 226 2.0 3.0 0.00 0.00 0.00 47 1002.9
20260504044500 56 238 2.0 3.0 0.00 0.00 0.00 48 1003.2
20260504043502 56 239 2.0 4.0 0.00 0.00 0.00 47 1003.4
20260504042502 56 243 2.0 3.0 0.00 0.00 0.00 47 1003.6
20260504042001 56 243 1.0 2.0 0.00 0.00 0.00 47 1003.4
20260504041501 56 243 1.0 2.0 0.00 0.00 0.00 47 1003.6
20260504041000 56 244 1.0 3.0 0.00 0.00 0.00 48 1003.7
20260504035502 57 244 1.0 2.0 0.00 0.00 0.00 47 1004.1
20260504035002 57 244 0.0 2.0 0.00 0.00 0.00 46 1004.3
20260504034500 58 244 0.0 0.0 0.00 0.00 0.00 46 1004.3
20260504034003 58 244 0.0 0.0 0.00 0.00 0.00 44 1004.4
20260504033501 58 244 0.0 0.0 0.00 0.00 0.00 44 1004.6
20260504033003 58 244 0.0 0.0 0.00 0.00 0.00 44 1004.7
20260504032001 59 244 0.0 0.0 0.00 0.00 0.00 42 1004.9
20260504031500 60 244 0.0 0.0 0.00 0.00 0.00 41 1004.8
20260504031001 60 244 0.0 0.0 0.00 0.00 0.00 40 1004.8
20260504030501 61 244 0.0 0.0 0.00 0.00 0.00 40 1004.8
20260504030001 61 244 0.0 0.0 0.00 0.00 0.00 38 1004.8
20260504025502 62 244 0.0 0.0 0.00 0.00 0.00 37 1004.8
20260504025003 62 244 0.0 0.0 0.00 0.00 0.00 36 1004.8
20260504024502 62 244 0.0 0.0 0.00 0.00 0.00 36 1004.9
20260504024003 62 244 0.0 0.0 0.00 0.00 0.00 36 1004.8
20260504023502 62 244 0.0 2.0 0.00 0.00 0.00 36 1004.9
20260504023002 63 244 1.0 2.0 0.00 0.00 0.00 35 1004.9
20260504022502 63 244 1.0 2.0 0.00 0.00 0.00 34 1004.9
20260504022002 63 244 1.0 2.0 0.00 0.00 0.00 34 1004.9
20260504021501 64 244 0.0 2.0 0.00 0.00 0.00 34 1004.9
20260504021003 64 244 1.0 3.0 0.00 0.00 0.00 33 1005.0
20260504020500 64 244 2.0 7.0 0.00 0.00 0.00 33 1004.9
20260504020001 64 244 2.0 7.0 0.00 0.00 0.00 33 1005.0
20260504015001 65 246 2.0 5.0 0.00 0.00 0.00 32 1005.0
20260504014501 65 244 2.0 5.0 0.00 0.00 0.00 31 1005.0
20260504014001 65 251 2.0 6.0 0.00 0.00 0.00 31 1005.0
20260504013502 66 254 2.0 7.0 0.00 0.00 0.00 31 1005.0
20260504013002 66 239 2.0 7.0 0.00 0.00 0.00 30 1005.1
20260504012502 66 229 2.0 5.0 0.00 0.00 0.00 30 1005.2
20260504012002 67 240 2.0 7.0 0.00 0.00 0.00 30 1005.2
20260504011502 67 244 2.0 7.0 0.00 0.00 0.00 29 1005.4
20260504010002 67 246 3.0 10.0 0.00 0.00 0.00 28 1005.3
20260504005502 67 259 4.0 10.0 0.00 0.00 0.00 27 1005.3
20260504003002 68 264 4.0 11.0 0.00 0.00 0.00 28 1005.2
20260504002502 68 252 4.0 12.0 0.00 0.00 0.00 27 1005.3
20260504001501 69 228 4.0 9.0 0.00 0.00 0.00 27 1005.5
20260504001001 69 278 3.0 9.0 0.00 0.00 0.00 27 1005.8
20260504000501 69 206 3.0 8.0 0.00 0.00 0.00 27 1005.5
20260504000001 69 249 4.0 9.0 0.00 0.00 0.00 27 1005.6
20260503235501 69 259 3.0 9.0 0.00 0.00 0.00 27 1005.8
20260503235001 69 293 3.0 9.0 0.00 0.00 0.00 26 1005.6
20260503233957 70 299 2.0 9.0 0.00 0.00 0.00 26 1005.4
20260503233451 70 334 2.0 6.0 0.00 0.00 0.00 26 1005.3
20260503232945 70 230 3.0 9.0 0.00 0.00 0.00 25 1005.4
20260503232438 70 339 4.0 9.0 0.00 0.00 0.00 25 1005.5
20260503231931 70 325 5.0 11.0 0.00 0.00 0.00 25 1005.4
20260503231430 71 250 5.0 15.0 0.00 0.00 0.00 25 1005.6
20260503230930 71 294 4.0 15.0 0.00 0.00 0.00 24 1005.6
20260503230429 72 250 4.0 13.0 0.00 0.00 0.00 24 1005.9
20260503225930 72 295 3.0 10.0 0.00 0.00 0.00 24 1005.9
20260503224930 72 338 3.0 12.0 0.00 0.00 0.00 24 1006.1
20260503223930 72 294 2.0 8.0 0.00 0.00 0.00 24 1006.0
20260503223429 71 67 3.0 8.0 0.00 0.00 0.00 23 1006.0
20260503222929 71 272 4.0 8.0 0.00 0.00 0.00 23 1006.1
20260503221929 71 216 4.0 13.0 0.00 0.00 0.00 23 1006.3
20260503221431 71 323 4.0 11.0 0.00 0.00 0.00 23 1006.2
20260503220929 72 289 3.0 11.0 0.00 0.00 0.00 23 1006.2
20260503220429 71 355 4.0 11.0 0.00 0.00 0.00 24 1006.3
20260503215929 71 271 4.0 12.0 0.00 0.00 0.00 23 1006.3
20260503215431 71 0 4.0 12.0 0.00 0.00 0.00 23 1006.4
20260503214929 71 327 4.0 13.0 0.00 0.00 0.00 23 1006.4
20260503214430 72 322 4.0 13.0 0.00 0.00 0.00 22 1006.3
20260503213929 72 271 4.0 9.0 0.00 0.00 0.00 24 1006.4
20260503213430 72 295 4.0 12.0 0.00 0.00 0.00 24 1006.5
20260503212930 72 338 4.0 12.0 0.00 0.00 0.00 24 1006.3
20260503212431 73 261 4.0 11.0 0.00 0.00 0.00 24 1006.5
20260503211930 73 253 2.0 9.0 0.00 0.00 0.00 26 1006.5
20260503211429 72 329 4.0 13.0 0.00 0.00 0.00 26 1006.5
20260503210929 72 278 5.0 13.0 0.00 0.00 0.00 25 1006.5
20260503210431 72 244 4.0 12.0 0.00 0.00 0.00 27 1006.7
20260503205929 72 317 3.0 7.0 0.00 0.00 0.00 27 1006.7
20260503205429 72 339 3.0 10.0 0.00 0.00 0.00 28 1006.8
20260503204929 71 330 5.0 12.0 0.00 0.00 0.00 28 1006.8
20260503204430 71 337 5.0 15.0 0.00 0.00 0.00 28 1006.8
20260503203930 71 250 4.0 15.0 0.00 0.00 0.00 28 1006.7
20260503203431 71 324 4.0 10.0 0.00 0.00 0.00 29 1006.7
20260503202927 71 323 4.0 14.0 0.00 0.00 0.00 29 1006.9
20260503202424 71 294 5.0 14.0 0.00 0.00 0.00 30 1006.8
20260503201923 71 252 5.0 16.0 0.00 0.00 0.00 30 1006.9
20260503201425 71 274 4.0 16.0 0.00 0.00 0.00 30 1007.0
20260503200924 70 289 6.0 15.0 0.00 0.00 0.00 29 1006.9
20260503200425 70 39 5.0 15.0 0.00 0.00 0.00 27 1007.0
20260503195424 70 11 5.0 13.0 0.00 0.00 0.00 28 1007.1
20260503194925 70 325 5.0 11.0 0.00 0.00 0.00 27 1007.3
20260503194422 71 326 4.0 11.0 0.00 0.00 0.00 28 1007.4
20260503193923 70 227 5.0 15.0 0.00 0.00 0.00 28 1007.4
20260503193421 70 296 5.0 15.0 0.00 0.00 0.00 27 1007.6
20260503192922 71 250 5.0 12.0 0.00 0.00 0.00 27 1007.5
20260503192422 70 336 5.0 15.0 0.00 0.00 0.00 27 1007.4
20260503191923 71 347 4.0 15.0 0.00 0.00 0.00 27 1007.4
20260503191422 71 246 5.0 11.0 0.00 0.00 0.00 26 1007.4
20260503190922 71 321 4.0 11.0 0.00 0.00 0.00 26 1007.5
20260503190422 70 312 4.0 10.0 0.00 0.00 0.00 27 1007.4
20260503185921 70 304 4.0 10.0 0.00 0.00 0.00 28 1007.5
20260503185421 70 53 4.0 15.0 0.00 0.00 0.00 29 1007.5
20260503184419 70 9 4.0 12.0 0.00 0.00 0.00 29 1007.5
20260503183921 71 324 4.0 12.0 0.00 0.00 0.00 31 1007.5
20260503183417 70 216 3.0 12.0 0.00 0.00 0.00 33 1007.6
20260503182918 70 339 4.0 12.0 0.00 0.00 0.00 33 1007.5
20260503182413 70 9 5.0 12.0 0.00 0.00 0.00 30 1007.6
20260503181913 70 30 4.0 10.0 0.00 0.00 0.00 31 1007.8
20260503181414 70 329 3.0 10.0 0.00 0.00 0.00 34 1007.6
20260503180914 70 302 4.0 10.0 0.00 0.00 0.00 34 1007.7
20260503180414 69 332 4.0 14.0 0.00 0.00 0.00 33 1007.8
20260503175913 69 328 5.0 14.0 0.00 0.00 0.00 33 1007.8
20260503175414 70 296 4.0 11.0 0.00 0.00 0.00 34 1007.8
20260503174915 70 295 4.0 12.0 0.00 0.00 0.00 35 1008.0
20260503174414 70 311 4.0 12.0 0.00 0.00 0.00 35 1008.0
20260503173913 69 350 4.0 10.0 0.00 0.00 0.00 36 1007.9
20260503172915 69 347 4.0 11.0 0.00 0.00 0.00 37 1008.0
20260503172413 69 5 4.0 11.0 0.00 0.00 0.00 38 1007.9
20260503171913 68 313 5.0 10.0 0.00 0.00 0.00 38 1007.8
20260503171413 68 324 4.0 11.0 0.00 0.00 0.00 39 1007.7
20260503170912 68 314 5.0 14.0 0.00 0.00 0.00 39 1008.0
20260503170411 68 299 5.0 14.0 0.00 0.00 0.00 39 1008.1
20260503150902 64 307 6.0 15.0 0.00 0.00 0.00 43 1007.7
20260503150402 63 345 6.0 15.0 0.00 0.00 0.00 44 1007.6
20260503131401 57 355 4.0 11.0 0.00 0.00 0.00 52 1007.0
20260503130902 57 315 3.0 8.0 0.00 0.00 0.00 51 1006.8
20260503130402 57 30 3.0 10.0 0.00 0.00 0.00 51 1006.9
20260503110402 53 219 2.0 6.0 0.00 0.00 0.00 52 1005.5
20260503090401 58 219 6.0 17.0 0.00 0.00 0.00 44 1006.2
20260503081401 60 194 6.0 15.0 0.00 0.00 0.00 44 1006.6
20260503080902 60 232 6.0 12.0 0.00 0.00 0.00 44 1006.5